• In Netherlands
  • List of Countries
  • For 7 days
  • Water Temperature
  • Satellite Maps
  • Weather Map
  • Weather Widgets
  • user-avatar
    Login

    Hourly Weather Blagoevgrad

    Today, 19 July, Thursday

    Time Temperature Precipitation Wind Pressure Humidity
    00:00 +17°C° 0 mm 2 mps 716 mmHg 79%
    01:00 +17°C° 0 mm 2 mps 716 mmHg 80%
    02:00 +16°C° 0 mm 2 mps 716 mmHg 83%
    03:00 +16°C° 0 mm 2 mps 716 mmHg 83%
    04:00 +16°C° 0 mm 2 mps 716 mmHg 83%
    05:00 +16°C° 0 mm 2 mps 716 mmHg 83%
    06:00 +17°C° 0 mm 2 mps 716 mmHg 80%
    07:00 +18°C° 0 mm 2 mps 716 mmHg 76%
    08:00 +20°C° 0 mm 3 mps 716 mmHg 70%
    09:00 +20°C° 0.1 mm 3 mps 716 mmHg 71%
    10:00 +20°C° 0.1 mm 3 mps 716 mmHg 71%
    11:00 +20°C° 0.1 mm 3 mps 716 mmHg 71%
    12:00 +21°C° 0 mm 3 mps 717 mmHg 68%
    13:00 +24°C° 0 mm 3 mps 717 mmHg 64%
    14:00 +25°C° 0 mm 4 mps 717 mmHg 61%
    15:00 +25°C° 0 mm 4 mps 717 mmHg 60%
    16:00 +26°C° 0 mm 4 mps 717 mmHg 59%
    17:00 +26°C° 0 mm 4 mps 717 mmHg 57%
    18:00 +24°C° 0 mm 3 mps 717 mmHg 64%
    19:00 +22°C° 0 mm 3 mps 717 mmHg 70%
    20:00 +20°C° 0 mm 2 mps 717 mmHg 77%
    21:00 +20°C° 0 mm 2 mps 717 mmHg 80%
    22:00 +19°C° 0 mm 2 mps 717 mmHg 84%
    23:00 +19°C° 0 mm 1 mps 718 mmHg 88%

    Tomorrow, 20 July, Friday

    Time Temperature Precipitation Wind Pressure Humidity
    00:00 +19°C° 0 mm 1 mps 718 mmHg 89%
    01:00 +19°C° 0 mm 1 mps 718 mmHg 90%
    02:00 +19°C° 0 mm 1 mps 718 mmHg 91%
    03:00 +19°C° 0 mm 1 mps 717 mmHg 91%
    04:00 +19°C° 0 mm 1 mps 717 mmHg 91%
    05:00 +19°C° 0 mm 1 mps 717 mmHg 91%
    06:00 +19°C° 0 mm 2 mps 718 mmHg 85%
    07:00 +21°C° 0 mm 2 mps 718 mmHg 78%
    08:00 +24°C° 0 mm 2 mps 718 mmHg 72%
    09:00 +25°C° 0 mm 2 mps 718 mmHg 66%
    10:00 +26°C° 0 mm 3 mps 718 mmHg 60%
    11:00 +28°C° 0 mm 3 mps 719 mmHg 55%
    12:00 +29°C° 0 mm 3 mps 719 mmHg 52%
    13:00 +29°C° 0 mm 3 mps 718 mmHg 49%
    14:00 +30°C° 0 mm 3 mps 718 mmHg 46%
    15:00 +30°C° 0 mm 3 mps 718 mmHg 47%
    16:00 +30°C° 0 mm 3 mps 718 mmHg 47%
    17:00 +30°C° 0 mm 3 mps 718 mmHg 47%
    18:00 +28°C° 0 mm 3 mps 718 mmHg 54%
    19:00 +26°C° 0 mm 2 mps 718 mmHg 61%
    20:00 +24°C° 0 mm 2 mps 718 mmHg 68%
    21:00 +21°C° 0 mm 2 mps 718 mmHg 72%
    22:00 +20°C° 0 mm 2 mps 719 mmHg 76%
    23:00 +19°C° 0 mm 2 mps 719 mmHg 80%

    Day after tomorrow, 21 July, Saturday

    Time Temperature Precipitation Wind Pressure Humidity
    00:00 +18°C° 0 mm 2 mps 719 mmHg 79%
    01:00 +17°C° 0 mm 2 mps 719 mmHg 79%
    02:00 +18°C° 0 mm 1 mps 719 mmHg 78%
    03:00 +18°C° 0 mm 1 mps 719 mmHg 77%
    04:00 +16°C° 0 mm 1 mps 719 mmHg 77%
    05:00 +16°C° 0 mm 1 mps 718 mmHg 76%
    06:00 +20°C° 0 mm 1 mps 719 mmHg 69%
    07:00 +22°C° 0 mm 1 mps 719 mmHg 62%
    08:00 +25°C° 0 mm 1 mps 719 mmHg 55%
    09:00 +27°C° 0 mm 2 mps 720 mmHg 49%
    10:00 +29°C° 0 mm 2 mps 720 mmHg 42%
    11:00 +31°C° 0 mm 3 mps 720 mmHg 35%
    12:00 +33°C° 0 mm 3 mps 719 mmHg 32%
    13:00 +33°C° 0 mm 3 mps 719 mmHg 29%
    14:00 +34°C° 0 mm 3 mps 719 mmHg 26%
    15:00 +34°C° 0 mm 3 mps 719 mmHg 27%
    16:00 +34°C° 0 mm 3 mps 719 mmHg 27%
    17:00 +34°C° 0 mm 3 mps 718 mmHg 28%
    18:00 +30°C° 0 mm 3 mps 718 mmHg 35%
    19:00 +28°C° 0 mm 2 mps 718 mmHg 41%
    20:00 +25°C° 0 mm 2 mps 718 mmHg 48%
    21:00 +24°C° 0 mm 1 mps 718 mmHg 49%
    22:00 +23°C° 0 mm 1 mps 719 mmHg 50%
    23:00 +22°C° 0 mm 1 mps 719 mmHg 51%

    22 July, Sunday

    Time Temperature Precipitation Wind Pressure Humidity
    00:00 +22°C° 0 mm 1 mps 719 mmHg 52%
    01:00 +21°C° 0 mm 1 mps 719 mmHg 54%
    02:00 +21°C° 0 mm 1 mps 719 mmHg 55%
    03:00 +21°C° 0 mm 1 mps 719 mmHg 58%
    04:00 +21°C° 0 mm 1 mps 719 mmHg 60%
    05:00 +21°C° 0 mm 1 mps 718 mmHg 62%
    06:00 +23°C° 0 mm 1 mps 719 mmHg 57%
    07:00 +26°C° 0 mm 1 mps 719 mmHg 51%
    08:00 +28°C° 0 mm 1 mps 719 mmHg 45%
    09:00 +30°C° 0 mm 1 mps 719 mmHg 40%
    10:00 +32°C° 0 mm 1 mps 719 mmHg 34%
    11:00 +35°C° 0 mm 2 mps 719 mmHg 28%
    12:00 +36°C° 0 mm 2 mps 718 mmHg 27%
    13:00 +36°C° 0 mm 2 mps 718 mmHg 25%
    14:00 +37°C° 0 mm 3 mps 717 mmHg 24%
    15:00 +37°C° 0 mm 3 mps 717 mmHg 25%
    16:00 +37°C° 0 mm 3 mps 717 mmHg 26%
    17:00 +37°C° 0 mm 2 mps 716 mmHg 27%
    18:00 +34°C° 0.2 mm 2 mps 716 mmHg 35%
    19:00 +30°C° 0.2 mm 2 mps 716 mmHg 43%
    20:00 +27°C° 0.2 mm 2 mps 716 mmHg 51%
    21:00 +26°C° 0.1 mm 2 mps 716 mmHg 55%
    22:00 +24°C° 0.1 mm 2 mps 716 mmHg 59%
    23:00 +23°C° 0.1 mm 2 mps 716 mmHg 63%

    23 July, Monday

    Time Temperature Precipitation Wind Pressure Humidity
    00:00 +23°C° 0 mm 2 mps 715 mmHg 64%
    01:00 +21°C° 0 mm 2 mps 715 mmHg 65%
    02:00 +21°C° 0 mm 2 mps 715 mmHg 67%
    03:00 +21°C° 0 mm 1 mps 715 mmHg 67%
    04:00 +21°C° 0 mm 1 mps 714 mmHg 66%
    05:00 +21°C° 0 mm 1 mps 714 mmHg 66%
    06:00 +23°C° 0 mm 2 mps 714 mmHg 60%
    07:00 +26°C° 0 mm 2 mps 715 mmHg 53%
    08:00 +28°C° 0 mm 2 mps 715 mmHg 47%
    09:00 +30°C° 0 mm 3 mps 715 mmHg 41%
    10:00 +31°C° 0 mm 3 mps 714 mmHg 35%
    11:00 +34°C° 0 mm 4 mps 714 mmHg 28%
    12:00 +34°C° 0 mm 4 mps 714 mmHg 27%
    13:00 +34°C° 0 mm 4 mps 713 mmHg 27%
    14:00 +35°C° 0 mm 4 mps 713 mmHg 26%
    15:00 +34°C° 0 mm 4 mps 713 mmHg 28%
    16:00 +33°C° 0 mm 3 mps 713 mmHg 31%
    17:00 +31°C° 0 mm 3 mps 712 mmHg 33%
    18:00 +29°C° 0.1 mm 2 mps 713 mmHg 42%
    19:00 +26°C° 0.1 mm 2 mps 713 mmHg 50%
    20:00 +24°C° 0.1 mm 2 mps 713 mmHg 59%
    21:00 +23°C° 0.3 mm 2 mps 713 mmHg 65%
    22:00 +21°C° 0.3 mm 2 mps 713 mmHg 71%
    23:00 +19°C° 0.3 mm 2 mps 713 mmHg 78%

    24 July, Tuesday

    Time Temperature Precipitation Wind Pressure Humidity
    00:00 +19°C° 0.1 mm 2 mps 713 mmHg 81%
    01:00 +18°C° 0.1 mm 2 mps 713 mmHg 84%
    02:00 +19°C° 0.1 mm 1 mps 713 mmHg 87%
    03:00 +19°C° 0 mm 1 mps 713 mmHg 87%
    04:00 +17°C° 0 mm 2 mps 713 mmHg 88%
    05:00 +17°C° 0 mm 2 mps 713 mmHg 88%
    06:00 +19°C° 0 mm 2 mps 714 mmHg 81%
    07:00 +21°C° 0 mm 2 mps 714 mmHg 74%
    08:00 +24°C° 0 mm 2 mps 714 mmHg 67%
    09:00 +25°C° 0.2 mm 2 mps 715 mmHg 60%
    10:00 +27°C° 0.2 mm 2 mps 715 mmHg 54%
    11:00 +29°C° 0.2 mm 2 mps 715 mmHg 48%
    12:00 +29°C° 0.5 mm 2 mps 715 mmHg 47%
    13:00 +29°C° 0.5 mm 2 mps 715 mmHg 45%
    14:00 +30°C° 0.5 mm 2 mps 715 mmHg 44%
    15:00 +30°C° 0.5 mm 2 mps 715 mmHg 46%
    16:00 +29°C° 0.5 mm 2 mps 715 mmHg 48%
    17:00 +29°C° 0.5 mm 2 mps 715 mmHg 50%
    18:00 +27°C° 0.4 mm 2 mps 715 mmHg 55%
    19:00 +25°C° 0.4 mm 2 mps 715 mmHg 61%
    20:00 +23°C° 0.4 mm 1 mps 715 mmHg 67%
    21:00 +22°C° 0.1 mm 1 mps 716 mmHg 71%
    22:00 +21°C° 0.1 mm 1 mps 716 mmHg 75%
    23:00 +20°C° 0.1 mm 1 mps 716 mmHg 80%
    Show more